Location: Catacaguana
(10.4120°N, 66.7591°W)
Time: 19:25:00
(UTC+00:00)

FengYun 1-2 T - Pass Details

Date: 02 February 2023
Orbit: 847 x 880 km, 98.7° (Epoch: 24 March)

Event Time Altitude Azimuth Distance (km) Brightness Sun altitude
Rises 09:06:14 0° 28° (NNE) 3,457 7.6 -25.4°
Reaches altitude 10° 09:08:51 10° 38° (NE) 2,523 6.9 -24.8°
Maximum altitude 09:13:52 34° 101° (E) 1,418 5.9 -23.6°
Drops below altitude 10° 09:18:53 10° 164° (SSE) 2,531 7.0 -22.4°
Sets 09:21:29 0° 174° (S) 3,469 7.7 -21.8°
